Regional Weather Roundup
Issued by NWS Newport/Morehead, NC

Current Version | Previous Version | Text Only | Print | Product List | Glossary On
Versions: 1 2 3 4 5 6 7 8 9 10 11 12 13 14 15 16 17 18 19 20 21 22 23 24 25 26 27 28 29 30 31 32 33 34 35 36 37 38 39 40 41 42 43 44 45 46 47 48 49 50
000 ASUS42 KMHX 231110 RWRMHX WEATHER ROUNDUP FOR EASTERN NORTH CAROLINA NATIONAL WEATHER SERVICE NEWPORT/MOREHEAD CITY NC 700 AM EDT WED JUL 23 2014 NOTE: "FAIR" INDICATES FEW OR NO CLOUDS BELOW 12,000 FEET WITH NO SIGNIFICANT WEATHER AND/OR OBSTRUCTIONS TO VISIBILITY NCZ015>017-031-032-045>047-102-103-231200- NORTH COAST CITY SKY/WX TMP DP RH WIND PRES REMARKS EDENTON CLOUDY 76 74 95 W5 30.04S ELIZABETH CITY CLOUDY 74 73 97 W6 30.04S KITTY HAWK PTSUNNY 76 74 96 W5 30.03S MANTEO NOT AVBL $$ NCZ045>047-081-094-103-104-231200- CENTRAL COAST CITY SKY/WX TMP DP RH WIND PRES REMARKS FRISCO CLEAR 78 75 90 W7 30.06S SWANQUARTER N/A 77 N/A N/A W8G16 30.03R $$ NCZ095-097-098-100-101-231200- SOUTHERN COAST CITY SKY/WX TMP DP RH WIND PRES REMARKS BEAUFORT CLEAR 77 75 93 W3 30.06S CEDAR ISLAND N/A 77 N/A N/A W5 30.09S JACKSONVILLE CLEAR 74 73 97 SW6 30.06S NEWPORT NOT AVBL PINEY ISLAND SUNNY 77 76 96 SW6 30.06S WILMINGTON CLEAR 73 72 96 CALM 30.06S $$ NCZ011>013-027>030-043-044-078>080-089-090>093-098-231200- COASTAL PLAIN CITY SKY/WX TMP DP RH WIND PRES REMARKS AHOSKIE CLOUDY 72 71 97 CALM 30.05R VSB<1/4 CLINTON FOG 74 74 100 SW3 30.06S VSB 3/4 ELIZABETHTOWN CLEAR 74 74 100 CALM 30.07S FOG GOLDSBORO CLOUDY 76 76 100 SW6 30.04S GREENVILLE CLOUDY 75 73 94 W3 30.07R FOG HAVELOCK PTCLDY 74 72 93 SW3 30.06F KENANSVILLE PTCLDY 74 72 94 CALM 30.07S KINSTON CLOUDY 75 75 100 SW5 30.07R FOG NEW BERN CLOUDY 76 73 91 W3 30.07S RICHLANDS CLOUDY 73 72 94 W3 30.06S ROANOKE RAPIDS NOT AVBL ROCKY MOUNT CLOUDY 74 73 97 SW3 30.06R FOG WASHINGTON CLOUDY 75 73 95 CALM 30.06S WHITEVILLE CLEAR 73 71 96 CALM 30.06S $$ AMZ130-135-150-152-154-156-158-170-250-252-270-ANZ085-086-088-633-658-670-231200- MARINE OBSERVATIONS STATION/POSITION TIME TEMP WIND PRES WAVE SWELL AIR SEA DIR/SP/G HT/PER HT/PER (UTC) (F) (DEG/KT/KT) (MB) (FT/S) (FT/S) CHESAPEAKE LIGHT NOT AVBL BUOY 44014 1100 77 78 230/ 6/ 8 1016.4 3/ 7 2/ 7 DUCK 1100 76 73 280/ 8/ 9 1016.2 2E DUCK 1100 N/A 2/ 8 OREGON INLET 1100 77 79 240/ 11/ 12 1017.1 BUOY 44095 1100 77 N/A 3/ 6 20E OREGON INLET 1000 200/ 4/ 4 N/A HATTERAS CG 1100 78 82 240/ 7/ 9 1018.1 DIAMOND BUOY 1100 VRB 12/ 17 1017.8 3/ 8 2/ 8 CAPE LOOKOUT 1000 78 250/ 6/ 8 1017.8 BEAUFORT LAB 1100 77 80 260/ 2/ 4 1017.6 30 SE NEW RIVER 1100 79 80 230/ 10/ 12 1018.1 3/ 5 2/ 5 5 SE WRIGHTSVILL 1000 76 81 260/ 8/ 8 N/A BUOY 41002 1018 81 82 200/ 14/ 17 1020.3 4/ 7 2/ 8 BUOY 41004 1100 80 82 CALM / 2 1017.3 3/ 8 3/ 8 $$

USA.gov is the U.S. government's official web portal to all federal, state and local government web resources and services.